Powrót do katalogu

SL-14 DEB

AktywnyPO
NORAD 45307·DEBRIS·🇷🇺 Russia

Wystrzelony Aug 15, 1991 z Plesetsk Cosmodrome

Loading…

Następne Przeloty (najbliższe 24 godziny)

TLE

ŚwieżeSource: Space-Track

Epoka: Sep 14, 2026, 03:00 UTC

1 45307U 91056AV  26257.12543425 -.00000590  00000-0 -15637-2 0  9998
2 45307  82.6099 142.8986 0239427 296.0321  61.6320 13.07257977310104

Śledź SL-14 DEB w czasie rzeczywistym z AllMySat

Download on the App Store